| time (UTC) | temp F | wind direction | speed knots | gust knots | rain 1hr in | rain 24hr in | rain mn in | humidity % | barometer mb |
| 20260506161554 | 70 | 360 | 1.7 | 9.6 | 0.00 | 0.00 | 0.00 | 69 | 1007.4 |
| 20260506160045 | 69 | 360 | 1.7 | 5.2 | 0.00 | 0.00 | 0.00 | 71 | 1007.9 |
| 20260506154540 | 68 | 360 | 2.6 | 10.4 | 0.00 | 0.00 | 0.00 | 71 | 1008.1 |
| 20260506153039 | 68 | 360 | 5.2 | 10.4 | 0.00 | 0.00 | 0.00 | 71 | 1008.2 |
| 20260506151536 | 68 | 360 | 1.7 | 8.7 | 0.00 | 0.00 | 0.00 | 73 | 1008.4 |
| 20260506150032 | 67 | 360 | 4.3 | 8.7 | 0.00 | 0.00 | 0.00 | 74 | 1008.6 |
| 20260506144528 | 66 | 360 | 0.0 | 8.7 | 0.00 | 0.00 | 0.00 | 76 | 1008.7 |
| 20260506143030 | 65 | 360 | 2.6 | 8.7 | 0.00 | 0.00 | 0.00 | 76 | 1008.8 |
| 20260506141533 | 65 | 360 | 1.7 | 8.7 | 0.00 | 0.00 | 0.00 | 77 | 1009.0 |
| 20260506140025 | 65 | 360 | 1.7 | 4.3 | 0.00 | 0.00 | 0.00 | 77 | 1009.0 |
| 20260506134522 | 64 | 360 | 1.7 | 9.6 | 0.00 | 0.00 | 0.00 | 79 | 1008.8 |
| 20260506133019 | 63 | 360 | 3.5 | 11.3 | 0.00 | 0.00 | 0.00 | 80 | 1008.7 |
| 20260506131522 | 62 | 360 | 1.7 | 8.7 | 0.00 | 0.00 | 0.00 | 81 | 1008.9 |
| 20260506130018 | 62 | 360 | 2.6 | 10.4 | 0.00 | 0.00 | 0.00 | 81 | 1009.0 |
| 20260506124515 | 62 | 360 | 1.7 | 7.8 | 0.00 | 0.00 | 0.00 | 82 | 1009.1 |
| 20260506123015 | 61 | 360 | 0.9 | 9.6 | 0.00 | 0.00 | 0.00 | 82 | 1009.2 |
| 20260506121513 | 61 | 360 | 2.6 | 10.4 | 0.00 | 0.00 | 0.00 | 82 | 1009.3 |
| 20260506120022 | 61 | 360 | 1.7 | 7.8 | 0.00 | 0.00 | 0.00 | 82 | 1009.4 |
| 20260506114512 | 61 | 360 | 1.7 | 7.0 | 0.00 | 0.00 | 0.00 | 83 | 1009.3 |
| 20260506113012 | 60 | 360 | 1.7 | 7.8 | 0.00 | 0.00 | 0.00 | 83 | 1009.4 |
| 20260506111511 | 60 | 360 | 1.7 | 7.0 | 0.00 | 0.00 | 0.00 | 85 | 1009.2 |
| 20260506110008 | 59 | 360 | 0.9 | 7.0 | 0.00 | 0.00 | 0.00 | 85 | 1009.7 |
| 20260506104505 | 58 | 360 | 0.9 | 4.3 | 0.00 | 0.00 | 0.00 | 85 | 1009.6 |
| 20260506103004 | 58 | 360 | 0.9 | 5.2 | 0.00 | 0.00 | 0.00 | 85 | 1009.6 |
| 20260506101502 | 58 | 360 | 0.9 | 7.8 | 0.00 | 0.00 | 0.00 | 85 | 1009.4 |
| 20260506100105 | 58 | 360 | 0.9 | 3.5 | 0.00 | 0.00 | 0.00 | 85 | 1009.2 |
| 20260506094612 | 58 | 360 | 0.9 | 3.5 | 0.00 | 0.00 | 0.00 | 84 | 1009.3 |
| 20260506093055 | 58 | 360 | 0.9 | 4.3 | 0.00 | 0.00 | 0.00 | 84 | 1009.3 |
| 20260506091554 | 59 | 360 | 1.7 | 5.2 | 0.00 | 0.00 | 0.00 | 83 | 1009.3 |
| 20260506090053 | 59 | 360 | 0.9 | 4.3 | 0.00 | 0.00 | 0.00 | 83 | 1009.3 |
| 20260506084556 | 59 | 360 | 0.9 | 4.3 | 0.00 | 0.00 | 0.00 | 82 | 1009.3 |
| 20260506083057 | 59 | 360 | 1.7 | 7.0 | 0.00 | 0.00 | 0.00 | 82 | 1009.6 |
| 20260506081550 | 59 | 360 | 0.9 | 3.5 | 0.00 | 0.00 | 0.00 | 82 | 1009.4 |
| 20260506080103 | 59 | 360 | 0.9 | 2.6 | 0.00 | 0.00 | 0.00 | 81 | 1009.4 |
| 20260506073055 | 60 | 360 | 0.0 | 5.2 | 0.00 | 0.00 | 0.00 | 80 | 1009.4 |
| 20260506071543 | 61 | 360 | 0.9 | 3.5 | 0.00 | 0.00 | 0.00 | 79 | 1009.3 |
| 20260506061536 | 62 | 360 | 1.7 | 5.2 | 0.00 | 0.00 | 0.00 | 76 | 1008.9 |
| 20260506044535 | 63 | 360 | 1.7 | 8.7 | 0.00 | 0.00 | 0.00 | 71 | 1009.2 |
| 20260506043025 | 63 | 360 | 2.6 | 7.8 | 0.00 | 0.00 | 0.00 | 70 | 1009.1 |
| 20260506041532 | 63 | 360 | 3.5 | 7.0 | 0.00 | 0.00 | 0.00 | 70 | 1009.3 |
| 20260506040021 | 64 | 360 | 2.6 | 10.4 | 0.00 | 0.00 | 0.00 | 69 | 1009.3 |
| 20260506034520 | 63 | 360 | 0.9 | 7.8 | 0.00 | 0.00 | 0.00 | 69 | 1009.2 |
| 20260506033020 | 63 | 360 | 2.6 | 7.0 | 0.00 | 0.00 | 0.00 | 69 | 1009.4 |
| 20260506031519 | 64 | 360 | 0.9 | 5.2 | 0.00 | 0.00 | 0.00 | 69 | 1009.4 |
| 20260506030018 | 64 | 360 | 0.9 | 4.3 | 0.00 | 0.00 | 0.00 | 68 | 1009.5 |
| 20260506024519 | 64 | 360 | 2.6 | 7.8 | 0.00 | 0.00 | 0.00 | 67 | 1009.3 |
| 20260506023020 | 64 | 360 | 0.9 | 7.0 | 0.00 | 0.00 | 0.00 | 67 | 1009.3 |
| 20260506021518 | 65 | 360 | 2.6 | 7.8 | 0.00 | 0.00 | 0.00 | 66 | 1009.2 |
| 20260506020016 | 65 | 360 | 2.6 | 8.7 | 0.00 | 0.00 | 0.00 | 65 | 1009.1 |
| 20260506014516 | 66 | 360 | 2.6 | 9.6 | 0.00 | 0.00 | 0.00 | 64 | 1009.2 |
| 20260506013016 | 66 | 360 | 1.7 | 8.7 | 0.00 | 0.00 | 0.00 | 64 | 1008.8 |
| 20260506011535 | 67 | 360 | 2.6 | 7.0 | 0.00 | 0.00 | 0.00 | 63 | 1008.7 |
| 20260506010013 | 68 | 360 | 1.7 | 11.3 | 0.00 | 0.00 | 0.00 | 62 | 1008.5 |
| 20260506004525 | 68 | 360 | 4.3 | 9.6 | 0.00 | 0.00 | 0.00 | 61 | 1008.4 |
| 20260506003012 | 69 | 360 | 3.5 | 10.4 | 0.00 | 0.00 | 0.00 | 60 | 1008.1 |
| 20260506001511 | 69 | 360 | 2.6 | 7.8 | 0.00 | 0.00 | 0.00 | 60 | 1008.0 |
| 20260506000010 | 70 | 360 | 3.5 | 9.6 | 0.00 | 0.00 | 0.00 | 59 | 1007.7 |
| 20260505234510 | 70 | 360 | 3.5 | 12.2 | 0.00 | 0.00 | 0.00 | 57 | 1007.4 |
| 20260505233020 | 71 | 360 | 3.5 | 11.3 | 0.00 | 0.00 | 0.00 | 57 | 1007.3 |
| 20260505231508 | 72 | 360 | 5.2 | 11.3 | 0.00 | 0.00 | 0.00 | 56 | 1006.9 |
| 20260505230008 | 73 | 360 | 3.5 | 10.4 | 0.00 | 0.00 | 0.00 | 55 | 1006.7 |
| 20260505224507 | 74 | 360 | 5.2 | 13.0 | 0.00 | 0.00 | 0.00 | 53 | 1006.6 |
| 20260505223014 | 74 | 360 | 2.6 | 10.4 | 0.00 | 0.00 | 0.00 | 53 | 1006.4 |
| 20260505221504 | 75 | 360 | 4.3 | 11.3 | 0.00 | 0.00 | 0.00 | 53 | 1006.3 |
| 20260505220003 | 75 | 184 | 3.5 | 11.3 | 0.00 | 0.00 | 0.00 | 52 | 1006.2 |
| 20260505214508 | 76 | 209 | 6.1 | 18.2 | 0.00 | 0.00 | 0.00 | 50 | 1006.1 |
| 20260505213003 | 77 | 180 | 5.2 | 9.6 | 0.00 | 0.00 | 0.00 | 50 | 1006.0 |
| 20260505211600 | 77 | 202 | 2.6 | 8.7 | 0.00 | 0.00 | 0.00 | 50 | 1006.0 |
| 20260505210058 | 78 | 173 | 3.5 | 10.4 | 0.00 | 0.00 | 0.00 | 50 | 1005.9 |
| 20260505204606 | 78 | 159 | 5.2 | 11.3 | 0.00 | 0.00 | 0.00 | 49 | 1005.8 |
| 20260505203106 | 78 | 180 | 4.3 | 15.6 | 0.00 | 0.00 | 0.00 | 49 | 1005.5 |
| 20260505201556 | 79 | 360 | 5.2 | 16.5 | 0.00 | 0.00 | 0.00 | 46 | 1005.6 |
| 20260505200054 | 80 | 360 | 4.3 | 15.6 | 0.00 | 0.00 | 0.00 | 45 | 1005.8 |
| 20260505194654 | 81 | 360 | 7.0 | 17.4 | 0.00 | 0.00 | 0.00 | 44 | 1005.5 |
| 20260505193052 | 81 | 360 | 3.5 | 11.3 | 0.00 | 0.00 | 0.00 | 45 | 1005.6 |
| 20260505191552 | 82 | 360 | 4.3 | 14.8 | 0.00 | 0.00 | 0.00 | 45 | 1005.6 |
| 20260505190049 | 82 | 360 | 5.2 | 20.0 | 0.00 | 0.00 | 0.00 | 42 | 1005.8 |
| 20260505184553 | 82 | 360 | 5.2 | 13.0 | 0.00 | 0.00 | 0.00 | 44 | 1006.0 |
| 20260505183052 | 82 | 360 | 3.5 | 13.9 | 0.00 | 0.00 | 0.00 | 47 | 1006.2 |
| 20260505181547 | 82 | 360 | 4.3 | 12.2 | 0.00 | 0.00 | 0.00 | 45 | 1006.2 |
| 20260505180044 | 81 | 360 | 4.3 | 13.9 | 0.00 | 0.00 | 0.00 | 45 | 1006.4 |
| 20260505174542 | 81 | 360 | 3.5 | 12.2 | 0.00 | 0.00 | 0.00 | 48 | 1006.6 |
| 20260505173039 | 80 | 360 | 3.5 | 14.8 | 0.00 | 0.00 | 0.00 | 48 | 1006.8 |
| 20260505171536 | 79 | 360 | 5.2 | 12.2 | 0.00 | 0.00 | 0.00 | 48 | 1007.0 |
| 20260505170033 | 79 | 360 | 4.3 | 11.3 | 0.00 | 0.00 | 0.00 | 48 | 1007.1 |
| 20260505164545 | 78 | 360 | 3.5 | 16.5 | 0.00 | 0.00 | 0.00 | 51 | 1007.5 |
| 20260505163027 | 77 | 360 | 3.5 | 13.0 | 0.00 | 0.00 | 0.00 | 52 | 1007.8 |